Location: Unspecified
(42.3650°N, 71.1030°W)
Time: 07:37:39
(UTC+00:00)

Vanguard 2 - Pass Details

Date: 29 June 2024
Orbit: 552 x 2913 km, 32.9° (Epoch: 13 July)

Event Time Altitude Azimuth Distance (km) Brightness Sun altitude
Exits shadow 07:16:20 17° 194° (SSW) 3,475 10.3 -16.0°
Maximum altitude 07:23:22 33° 145° (SE) 3,189 10.5 -15.3°
Drops below altitude 10° 07:36:15 10° 90° (E) 5,465 12.4 -13.8°
Sets 07:41:33 0° 82° (E) 6,665 13.1 -13.2°
